www.pogodaiklimat.ru

Погода и климат >> Архив погоды >> Россия >> Новгородская область >> Демянск


ПОГОДА в Демянске

  • Прогноз погоды в Демянске
  • Монитор погоды в Демянске

АРХИВ ПОГОДЫ в Демянске

Время (UTC), дата Ветер
(напр.,м/с)
 
Видим.   Явления Облачность Т
(С)
Тd
(С)
f
(%)
Тe
(С)
Тes
(С)
Комфортность P
(гПа)
Po
(гПа)
Тmin
(С)
Tmax
(С)
R
(мм)
R24
(мм)
S
(см)
18 9.02 Ю 2 50 км 10/10 300 м
[St]
+1.3 -1.3 83 -2 -2 1012.9 1005.2 +4.7
21 9.02 Ю 3 н/о н/о +0.7 -2.2 81 -4 -4 1012.0 1004.3
00 10.02 Ю 2 н/о н/о +1.1 -3.0 74 -2 -2 1010.8 1003.1
03 10.02 Ю 2 н/о н/о +0.4 -3.4 76 -3 -3 1009.7 1002.0 +0.4
06 10.02 Ю 3 50 км в посл. час ливневой снег 10/10 400 м
[Cb calv]
-0.5 -4.1 77 -5 -5 1009.2 1001.5 -0.6 0.0 28
09 10.02 Ю 3 н/о н/о -0.3 -4.8 72 -5 -5 1009.4 1001.7
12 10.02 Ю 3 н/о н/о -0.1 -4.3 73 -5 -5 1008.8 1001.1
15 10.02 Ю 2 н/о н/о -0.6 -4.2 77 -4 -4 1008.7 1001.0
18 10.02 Ю 2 50 км 10/10 420 м
[Cb calv]
-0.5 -4.1 77 -4 -4 1008.6 1000.9 +0.1 0.0
21 10.02 Ю 1 н/о н/о 0.0 -3.0 80 -2 -2 1008.3 1000.6
00 11.02 ЮВ 1 н/о н/о +0.1 -2.0 86 -2 -2 1008.2 1000.5
03 11.02 ЮВ 1 н/о н/о -0.5 -2.9 84 -3 -3 1007.4 999.7 -0.8
06 11.02 ЮВ 3 50 км 10/0
[Ac As]
+0.1 -2.7 81 -4 -4 1005.9 998.2 -0.7 28
09 11.02 ЮВ 3 н/о н/о +2.8 -1.9 71 -1 -1 1005.3 997.7
12 11.02 Ю 3 н/о н/о +2.2 -0.8 81 -2 -2 1004.8 997.2
15 11.02 ЮВ 3 н/о н/о +2.6 -1.2 76 -1 -1 1003.5 995.9 0.6
18 11.02 Ю 3
{11}
50 км 10/10 570 м
[Cb calv]
+1.8 -1.7 78 -2 -2 1003.2 995.6 +3.0 0.6
21 11.02 Ю 3 н/о н/о +1.2 -2.0 79 -3 -3 1002.8 995.2
00 12.02 Ю 3 н/о н/о +1.4 -1.8 79 -3 -3 1001.7 994.1
03 12.02 Ю 2 н/о н/о +1.0 -0.6 89 -3 -3 1001.4 993.8 +1.0 0.6
06 12.02 Ю 3 50 км 10/10 540 м
[Cb calv]
+1.8 -0.7 83 -2 -2 1001.3 993.7 +0.9 0.6 26
09 12.02 Ю 2 н/о н/о +2.3 -0.2 84 -1 -1 1001.9 994.3
12 12.02 Ю 2 н/о н/о +2.6 -0.3 81 -0 -0 1002.4 994.8
15 12.02 ЮЗ 3 н/о н/о +2.1 -0.7 82 -2 -2 1003.7 996.1 0.2
18 12.02 ЮЗ 2 50 км 10/10 300 м
[St]
+1.2 -0.4 89 -2 -2 1005.5 997.8 +3.5
21 12.02 З 3 н/о н/о 0.0 -1.0 93 -5 -5 1008.5 1000.8
00 13.02 СЗ 2 н/о н/о -1.6 -4.6 80 -5 -5 1011.3 1003.5
03 13.02 СЗ 3 н/о н/о -2.5 -6.9 72 -7 -7 1012.1 1004.3 -2.5 0.4
06 13.02 СЗ 3 50 км 10/10 660 м
[Cb calv]
-2.7 -6.4 76 -8 -8 1011.9 1004.1 -2.7 0.6 26
09 13.02 З 3 н/о н/о -2.5 -7.2 70 -7 -7 1012.2 1004.4
12 13.02 З 2 н/о н/о -2.1 -8.2 63 -6 -6 1012.4 1004.6
15 13.02 ЮЗ 1 н/о н/о -3.0 -8.0 68 -5 -5 1013.1 1005.3
18 13.02 В 1 50 км ясно -10.0 -11.4 89 -12 -12 1014.9 1006.8 -0.6
21 13.02 В 1 н/о н/о -9.3 -11.1 87 -12 -12 1016.1 1008.1
00 14.02 Ю 1 н/о н/о -9.1 -10.7 88 -11 -11 1017.6 1009.5
03 14.02 ЮЗ 1 н/о н/о -3.5 -6.3 81 -6 -6 1017.8 1009.9 -10.5
06 14.02 З 1 50 км 9/9 600 м
[Cb calv]
-2.5 -5.1 82 -5 -5 1019.0 1011.1 -10.5 26
09 14.02 ЮЗ 2 н/о н/о -1.1 -3.4 84 -5 -5 1020.6 1012.8
12 14.02 З 2 н/о н/о +0.5 -1.6 86 -3 -3 1021.7 1013.9
15 14.02 З 2 н/о н/о +0.7 -0.5 92 -3 -3 1022.3 1014.5 0.3
18 14.02 ЮЗ 3 20 км 10/10 210 м
[St]
+0.6 -0.7 91 -4 -4 1022.4 1014.6 +0.7 0.4
21 14.02 ЮЗ 4 н/о н/о +0.6 -1.2 88 -5 -5 1020.1 1012.3
00 15.02 ЮЗ 3 н/о н/о +1.0 -1.6 83 -3 -3 1017.3 1009.6
03 15.02 З 4 н/о н/о +1.2 0.0 92 -4 -4 1015.7 1008.0 +0.4 0.1
06 15.02 З 3
{10}
50 км 10/10 120 м
[St]
+2.0 +1.0 93 -2 -2 1014.9 1007.2 +0.4 0.1 24
09 15.02 З 5 н/о н/о +4.5 +0.6 76 -0 -0 1014.8 1007.2
12 15.02 З 5 н/о н/о +5.7 +0.1 67 +2 +2 1014.4 1006.8
15 15.02 З 3 н/о н/о +4.2 -0.6 71 +1 +1 1014.1 1006.5
18 15.02 З 3 50 км 8/0
[Ac trans]
+4.6 -1.0 67 +1 +1 1014.4 1006.8 +6.3
21 15.02 З 3 н/о н/о +3.1 +0.3 82 -1 -1 1014.9 1007.2
00 16.02 З 2 н/о н/о +2.3 +0.4 87 -1 -1 1016.0 1008.3
03 16.02 З 2 н/о н/о +2.4 +0.6 88 -1 -1 1016.5 1008.8 +2.2
06 16.02 З 2 10 км 10/10 180 м
[St]
+1.8 +0.8 93 -2 -2 1016.3 1008.6 +1.8 22
09 16.02 З 2 н/о н/о +2.1 +0.9 92 -1 -1 1015.4 1007.7
12 16.02 ЮЗ 4 н/о н/о +3.7 +0.6 80 -1 -1 1012.3 1004.7

 

Местоположение метеостанции Демянск (Новгородская область, Россия): широта 57.65 долгота 32.47 высота над уровнем моря 61 м.

В архиве по умолчанию представлена погода в Демянске за последнюю неделю. Архивные данные за месяц целиком и за предыдущие месяцы, начиная с января 2011 года, Вы можете получить, выбрав интересующий диапазон дат из раскрывающегося списка и нажав кнопку "Ввод!".


*Определитесь, кто Вы:
робот инопланетянин человек

Внимание! Время в таблицах - всемирное. Для получения местного времени необходимо прибавить поправку, которая равна 3 ч.

Смотрите также архив погоды в соседних городах и на ближайших метеорологических станциях:

Погода в Валдае (Новгородская область, Россия) (60 км)
Погода в Крестцах (Новгородская область, Россия) (69 км)
Погода в Осташкове (Тверская область, Россия) (71 км)
Погода в Старой Руссе (Новгородская область, Россия) (80 км)
Погода в Окуловке (Новгородская область, Россия) (94 км)
Погода в Холме (Новгородская область, Россия) (95 км)
Погода в Бологом (Тверская область, Россия) (96 км)
Погода в Боровичах (Новгородская область, Россия) (120 км)
Погода в Великом Новгороде (Новгородская область, Россия) (120 км)
Погода в Вышнем Волочке (Тверская область, Россия) (125 км)

Пояснения к столбцам:

Ветер - указаны скорость ветра в м/с - средняя за 10 мин, порывы в срок и между сроками (в фигурных скобках) и направление, откуда дует ветер: С - северный, СВ - северо-восточный, В - восточный, ЮВ - юго-восточный, Ю - южный, ЮЗ - юго-западный, З - западный, СЗ - северо-западный.
Видимость - горизонтальная дальность видимости в метрах или километрах. При видимости от 1 до 10 км при отсутствии осадков обычно наблюдается дымка, при ухудшении видимости до 1 км и менее - туман. В сухую погоду видимость может ухудшаться дымом, пылью или мглою.
Явления - указаны атмосферные явления, наблюдавшиеся в срок или в последний час перед сроком; фигурными скобками обозначены явления, наблюдавшиеся между сроками (за 1-3 часа до срока); квадратными скобками обозначены град или гололедные отложения с указанием их диаметра в мм.
Облачность - указаны через наклонную черту общая и нижняя облачность в баллах и высота нижней границы облаков в метрах; квадратными скобками обозначены формы облаков: Ci - перистые, Cs - перисто-слоистые, Cc - перисто-кучевые, Ac - высококучевые, As - высокослоистые, Sc - слоисто-кучевые, Ns - слоисто-дождевые, Cu - кучевые, Cb - кучево-дождевые. Подробнее классификацию облаков см. в Атласе облаков (PDF).
T - Температура воздуха - температура, измеренная на высоте 2 м над землей.
Td - Температура точки росы - температура, при понижении до которой содержащийся в воздухе водяной пар достигнет насыщения.
f - Относительная влажность воздуха - влажноcть воздуха, измеренная на высоте 2 м над землей.
Te - Эффективная температура - температура, которую ощущает одетый по сезону человек в тени. Характеристика душности погоды. При расчете учитывается влияние влажности воздуха и скорости ветра на теплоощущения человека.
Tes - Эффективная температура на солнце - температура, которую ощущает человек, с поправкой на солнечный нагрев. Характеристика знойности погоды. Зависит от высоты солнца над горизонтом, облачности и скорости ветра. Ночью, в пасмурную погоду, а также при ветре 12 м/с и более поправка равна нулю.
P - Атмосферное давление - приведенное к уровню моря атмосферное давление.
Po - Атмосферное давление - измеренное на уровне метеостанции атмосферное давление.
Tmin - Минимальная температура - минимум температуры воздуха на высоте 2 м над землей.
Tmax - Максимальная температура - максимум температуры воздуха на высоте 2 м над землей.
R - Количество осадков - Количество выпавших осадков за период времени, мм. При наведении курсора мыши на число - период времени, за который выпало указанное количество осадков.
R24 - Количество осадков - Количество выпавших осадков за 24 часа, мм.
S - Снежный покров - Высота снежного покрова, см. При наведении курсора мыши на число - состояние снежного покрова и степень покрытия местности в баллах.